EKRAN 2 DEB, 11581

Orbit data source: Space-Track

EKRAN 2 DEB, 11581 is space debris in GEO originally from a launch on Tue, 20 Sep 1977 UTC launched from the Tyuratam Missile And Space Complex (TTMTR). Debris objects in space refer to the collection of defunct objects orbiting the Earth. Examples of debris include non-operational satellites, rocket bodies, and fragments generated from explosions, collisions, or faulty payload assembly.

Not visible in the next 10 days
Identifier
11581, 1977-092H
Orbit
GEO
Last TLE update
6 hours ago
Origin
Manufacturer
Unknown
Mission
Spacecraft
Bus & Motor
Unknown
Mass
Unknown
Launch date (UTC)
1977-09-20 (48 years ago)
Launch vehicle
Unknown
Launch site
Tyuratam Missile And Space Complex (TTMTR)
Object type
Payload
Rocket body
Debris
Shape & HBR
Unknown
Radar Cross Section
Large (>1 m²)

Expand to show TLE details & history

TLE from 6 hours ago
0 EKRAN 2 DEB
1 11581U 77092H   25187.86091939  .00000166  00000-0  00000+0 0  9991
2 11581   5.0252 278.7210 0014784 228.8225 114.2574  1.00220453100880
Epoch: 2025-07-06T20:39Z
TLE epoch observation values (Epoch: 2025-07-06T20:39:43.435Z)
Latitude
-1.4735°
Longitude
26.99842°
Altitude
35,826.623 km
Speed
3.072 km/s
True Right ascension
17h 28m 01s
True Declination
-1° 28' 19"
Sunlit
Object was in daylight at epoch
Visualization orbit readout
Latitude
4.68541°
Longitude
112.54735°
Altitude
35,858.392 km
Speed
3.07 km/s
Apparent Right ascension
23h 28m 39s
Apparent Declination
0° 47' 10"
Sunlit
Object is in daylight
Visualization observer readout
Local Sidereal Time
14:23:19
Azimuth
56.695° ENE
Elevation
-34.302°
Doppler factor
1
Orbital elements
Apogee altitude
35,864.409 km
Perigee altitude
35,739.69 km
Semi-major axis
42,180.186 km
Eccentricity
0.00148
Inclination
5.0252°
RAAN
278.721°
Arg. of periapsis
228.8225°
True anomaly
Unknown
Mean anomaly
114.2574°
Eccentric anomaly
Unknown
Mean motion
0.25054 °/min
Orbital period
1,436.89 mins
BSTAR
0
Loading historical data...
11581 neighbors
Loading maneuver chart data...
Loading SW <> Apogee altitude chart data...
Loading historical data...
Loading historical data...
Loading historical data...
Loading historical data...
Loading historical data...
Loading historical data...
Loading historical data...

EKRAN 2 DEB Visibility

Observer location: undefined°, undefined°

EKRAN 2 DEB is likely not visible in the next few days
Span
Click to sort rows by Start time (UTC) header in descending order
Start Az.
Max El. time (UTC)
Max El. Az.
Max El.
End time (UTC)
End Az.
|